Location: Larrial
(48.2758°N, 4.5331°W)
Time: 22:23:36
(UTC+00:00)

CZ-4 R/B - Pass Details

Date: 09 April 2020
Orbit: 532 x 598 km, 97.8° (Epoch: 26 May)

Event Time Altitude Azimuth Distance (km) Brightness Sun altitude
Rises 19:33:51 0° 200° (SSW) 2,666 4.8 -6.1°
Reaches altitude 10° 19:36:21 10° 217° (SW) 1,781 4.2 -6.5°
Maximum altitude 19:39:16 21° 267° (W) 1,250 4.2 -7.0°
Drops below altitude 10° 19:42:14 10° 317° (NW) 1,800 5.1 -7.4°
Sets 19:44:48 0° 334° (NNW) 2,704 5.7 -7.8°
